{"data":{"norad_id":48126,"epoch":"2026-09-20T04:21:45.090432Z","epoch_age_seconds":31672,"freshness":"FRESH","line1":"1 48126U 21027AL  26263.18177188  .00001468  00000+0  59061-4 0  9996","line2":"2 48126  53.1614 327.3360 0001109  81.5669 278.5458 15.31704620302499","mean_motion":15.3170462,"eccentricity":0.0001109,"inclination_deg":53.1614,"raan_deg":327.336,"arg_perigee_deg":81.5669,"mean_anomaly_deg":278.5458,"bstar":5.9061e-5,"rev_number":30249,"period_min":94.01290439406,"perigee_km":469.96668434921,"apogee_km":471.48576221213,"semimajor_km":6848.8632232807,"source":"CELESTRAK","updated_at":"2026-09-20T09:00:38.766496Z"}}